FW3942 Weather Reports


time (UTC)temp
C
wind
direction
speed
KPH
gust
KPH
rain 1hr
cm
rain 24hr
cm
rain mn
cm
humidity
%
barometer
mb
20260508023004 8 105 8.0 12.9 0.08 2.39 2.39 96 1001.9
20260508021503 8 194 0.0 1.6 0.08 2.36 2.36 96 1002.4
20260508020002 8 194 0.0 6.4 0.15 2.36 2.36 96 1002.5
20260508014502 8 140 3.2 6.4 0.15 2.34 2.34 96 1002.6
20260508013001 8 232 3.2 4.8 0.18 2.31 2.31 96 1002.7
20260508011616 8 232 3.2 4.8 0.23 2.29 2.29 95 1002.6
20260508010104 7 232 1.6 6.4 0.20 2.21 2.21 95 1002.4
20260508004558 8 201 4.8 8.0 0.20 2.18 2.18 95 1002.6
20260508003058 7 191 3.2 9.7 0.18 2.11 2.11 95 1002.5
20260508001557 7 214 4.8 11.3 0.15 2.06 2.06 95 1002.6
20260508000116 7 197 6.4 11.3 0.10 2.03 2.03 94 1002.7
20260507234556 7 188 3.2 19.3 0.05 1.98 1.98 95 1002.4
20260507233054 7 229 11.3 27.4 0.03 1.93 1.93 94 1002.2
20260507231558 7 285 19.3 29.0 0.00 1.93 1.93 91 1001.7
20260507230049 12 268 24.1 35.4 0.00 1.93 1.93 84 1001.5
20260507224551 13 194 4.8 11.3 0.00 1.93 1.93 88 1000.8
20260507223046 13 166 11.3 14.5 0.00 1.93 1.93 88 1000.9
20260507221545 13 158 9.7 16.1 0.00 1.93 1.93 87 1000.9
20260507220045 13 174 9.7 19.3 0.00 1.93 1.93 87 1000.6
20260507214547 13 170 11.3 24.1 0.00 1.93 1.93 87 1000.6
20260507213044 13 170 14.5 25.7 0.00 1.93 1.93 86 1000.6
20260507211551 13 143 20.9 30.6 0.00 1.93 1.93 87 1000.5
20260507210047 13 149 14.5 22.5 0.05 1.93 1.93 88 1000.5
20260507204542 13 145 4.8 19.3 0.15 1.93 1.93 89 1000.5
20260507203042 13 175 16.1 35.4 0.25 1.93 1.93 89 1000.3
20260507201539 13 153 17.7 33.8 0.38 1.93 1.93 89 1000.1
20260507200040 12 128 22.5 35.4 0.48 1.88 1.88 91 999.8
20260507194537 12 137 22.5 35.4 0.53 1.78 1.78 91 1000.8
20260507193030 12 134 17.7 27.4 0.61 1.65 1.65 91 1001.9
20260507191529 12 167 12.9 22.5 0.71 1.55 1.55 91 1002.7
20260507190030 13 161 14.5 32.2 0.79 1.40 1.40 91 1002.5
20260507184525 13 166 20.9 35.4 0.86 1.24 1.24 92 1003.0
20260507183025 12 177 17.7 37.0 0.86 1.04 1.04 92 1002.9
20260507181525 12 200 12.9 24.1 0.71 0.81 0.81 93 1003.4
20260507180024 12 204 17.7 30.6 0.56 0.61 0.61 93 1003.6
20260507174540 12 203 20.9 38.6 0.36 0.38 0.38 92 1003.8
20260507173022 13 183 32.2 41.8 0.18 0.18 0.18 89 1003.2
20260507171518 14 206 20.9 45.1 0.08 0.08 0.08 87 1002.8
20260507170013 15 194 20.9 38.6 0.05 0.05 0.05 86 1002.7
20260507164511 15 201 33.8 46.7 0.03 0.03 0.03 81 1002.7
20260507163011 16 197 30.6 56.3 0.00 0.00 0.00 78 1003.0
20260507161511 16 208 20.9 54.7 0.00 0.00 0.00 79 1003.3
20260507160008 16 196 33.8 61.2 0.00 0.00 0.00 77 1003.4
20260507154508 16 205 38.6 67.6 0.00 0.00 0.00 76 1003.5
20260507153002 16 201 33.8 61.2 0.00 0.00 0.00 74 1004.1
20260507151602 16 194 35.4 69.2 0.00 0.00 0.00 75 1004.5
20260507150059 16 201 45.1 74.0 0.00 0.00 0.00 75 1004.7
20260507144558 16 209 30.6 57.9 0.00 0.00 0.00 76 1004.9
20260507143108 16 184 33.8 64.4 0.00 0.00 0.00 76 1004.8
20260507141610 16 188 35.4 57.9 0.00 0.00 0.00 79 1005.3
20260507140110 16 195 40.2 61.2 0.00 0.00 0.00 80 1005.4
20260507134551 16 184 38.6 62.8 0.00 0.00 0.00 78 1005.6
20260507133056 16 167 40.2 64.4 0.00 0.00 0.00 79 1005.5
20260507131613 16 194 27.4 62.8 0.00 0.00 0.00 80 1005.8
20260507130046 16 197 43.5 75.6 0.00 0.00 0.00 78 1006.3
20260507124551 16 148 35.4 74.0 0.00 0.00 0.00 80 1006.1
20260507123044 16 174 49.9 75.6 0.00 0.00 0.00 79 1006.3
20260507121538 16 165 37.0 57.9 0.00 0.00 0.00 80 1006.2
20260507120040 15 184 38.6 62.8 0.00 0.00 0.00 82 1006.5
20260507114534 15 148 43.5 62.8 0.00 0.00 0.00 82 1006.8
20260507113059 15 176 41.8 75.6 0.00 0.00 0.00 80 1006.9
20260507111532 16 132 37.0 69.2 0.00 0.00 0.00 81 1007.5
20260507110031 15 184 32.2 54.7 0.00 0.00 0.00 81 1007.4
20260507104524 15 194 35.4 51.5 0.00 0.00 0.00 80 1007.8
20260507103023 15 165 33.8 56.3 0.00 0.00 0.00 80 1007.9
20260507101525 15 169 38.6 62.8 0.00 0.00 0.00 81 1008.1
20260507100031 15 207 35.4 51.5 0.00 0.00 0.00 82 1008.4
20260507094515 15 205 19.3 41.8 0.00 0.00 0.00 81 1008.5
20260507093014 15 192 25.7 49.9 0.00 0.00 0.00 81 1008.9
20260507091511 15 188 27.4 46.7 0.00 0.00 0.00 84 1009.3
20260507090008 15 194 29.0 38.6 0.00 0.00 0.00 83 1009.6
20260507084511 15 224 17.7 45.1 0.00 0.00 0.00 82 1009.7
20260507083012 15 186 20.9 38.6 0.00 0.00 0.00 82 1010.1
20260507081503 15 153 9.7 33.8 0.00 0.00 0.00 82 1009.3
20260507080107 15 208 14.5 38.6 0.00 0.00 0.00 82 1010.0
20260507074558 15 180 22.5 35.4 0.00 0.00 0.00 81 1010.3
20260507073058 15 163 22.5 35.4 0.00 0.00 0.00 81 1010.5
20260507071553 15 184 19.3 45.1 0.00 0.00 0.00 80 1011.2
20260507070103 15 178 19.3 43.5 0.00 0.00 0.00 79 1011.3
20260507064549 15 185 22.5 35.4 0.00 0.00 0.00 79 1011.3
20260507063052 15 179 17.7 37.0 0.00 0.00 0.00 78 1011.3
20260507061544 15 155 17.7 32.2 0.00 0.00 0.00 77 1011.4
20260507060044 16 157 32.2 48.3 0.00 0.00 0.00 75 1011.5
20260507054541 16 152 27.4 45.1 0.00 0.00 0.00 72 1011.6
20260507053035 15 194 25.7 40.2 0.00 0.00 0.00 67 1012.2
20260507051532 15 208 11.3 32.2 0.00 0.00 0.00 70 1012.8
20260507050049 15 193 19.3 37.0 0.00 0.00 0.00 72 1013.1
20260507044528 15 170 20.9 38.6 0.00 0.00 0.00 72 1013.2
20260507043024 15 158 24.1 40.2 0.00 0.00 0.00 73 1013.6
20260507041521 15 195 19.3 35.4 0.00 0.00 0.00 72 1014.0
20260507040021 15 161 17.7 32.2 0.00 0.00 0.00 72 1014.3
20260507034516 15 197 24.1 41.8 0.00 0.00 0.00 75 1014.4
20260507033019 15 179 22.5 43.5 0.00 0.00 0.00 74 1014.7
20260507031509 15 197 24.1 48.3 0.00 0.00 0.00 74 1014.8
20260507030007 16 185 24.1 46.7 0.00 0.00 0.00 73 1015.0
20260507024507 16 176 24.1 48.3 0.00 0.00 0.00 73 1015.2